Flag for India Weather past 2 weeks in Navi Mumbai, Maharashtra, India

Now
73 °F

Haze.


Feels Like: 75 °F
Forecast: 64 / 91 °F
Wind: 3 mph from Northwest

Location: Bombay / Santacruz

Current Time: Jan 29, 2015 at 12:50:08 AM

Latest Report: Jan 28, 2015 at 11:40 PM


Visibility: 1 mi

Pressure: 29.92 "Hg

Humidity: 74%

Dew point: 64 °F

Location of Navi MumbaiLocation

Historic Weather in Navi Mumbai — Graph

°F

Navi Mumbai temperature yesterday

Maximum temperature yesterday: 86 °F (at 1:40 PM)
Minimum temperature yesterday: 68 °F (at 5:40 AM)
Average temperature yesterday: 76 °F

Past Weeks' High & Low Weather Summary

 TemperatureHumidityPressure
High88 °F (Jan 17, 1:40 PM)94% (Jan 20, 4:40 AM)30.09 "Hg (Jan 20, 4:40 AM)
Low66 °F (Jan 15, 7:40 AM)25% (Jan 15, 12:40 PM)29.80 "Hg (Jan 28, 2:40 PM)
Average77 °F57%29.95 "Hg
* Reported Jan 13 10:40 PM — Jan 28 10:40 PM, Navi Mumbai, Weather by CustomWeather, © 2014

Note: Actual official high and low records may vary slightly from our data, if they occured in-between our weather recording intervals... More about our weather records

Advertising

Navi Mumbai weather history for previous 24 hours

 ConditionsComfort  
Time TempWeatherWind HumidityBarometerVisibility
10:40 PM
Jan 28
73 °FHaze.No wind74%29.92 "Hg1 mi
9:40 PM75 °FHaze.3 mph69%29.89 "Hg1 mi
8:40 PM75 °FHaze.7 mph74%29.86 "Hg1 mi
7:40 PM77 °FHaze.5 mph69%29.86 "Hg1 mi
6:40 PM79 °FHaze.7 mph61%29.86 "Hg1 mi
5:40 PM81 °FHaze.7 mph62%29.83 "Hg1 mi
4:40 PM82 °FClear.10 mph58%29.83 "Hg1 mi
3:40 PM84 °FClear.10 mph51%29.80 "Hg1 mi
2:40 PM86 °FClear.12 mph52%29.80 "Hg1 mi
1:40 PM86 °FClear.7 mph52%29.83 "Hg1 mi
12:40 PM82 °FPassing clouds.8 mph55%29.89 "Hg1 mi
11:40 AM84 °FPassing clouds.3 mph45%29.92 "Hg1 mi
9:40 AM75 °FHaze.6 mph61%29.95 "Hg1 mi
8:40 AM70 °FHaze.No wind73%29.92 "Hg1 mi
7:40 AM70 °FHaze.No wind73%29.92 "Hg1 mi
6:40 AM68 °FHaze.No wind73%29.89 "Hg1 mi
5:40 AM68 °FHaze.No wind78%29.86 "Hg1 mi
4:40 AM70 °FHaze.No wind73%29.86 "Hg1 mi
3:40 AM70 °FHaze.3 mph73%29.86 "Hg1 mi
2:40 AM70 °FHaze.6 mph73%29.89 "Hg1 mi
1:40 AM72 °FHaze.5 mph73%29.89 "Hg1 mi
12:40 AM72 °FHaze.3 mph73%29.92 "Hg1 mi
Weather by CustomWeather, © 2014

See weather overviewHow to use our weather pages